Sugarloaf, CA

9:22 AM PDT on September 26, 2016 (GMT -0700)
Big Bear City

Weather History for KL35 - January, 2014

Change the Weather History Date:

Tuesday, January 21, 2014

  Actual Average (KBUO) Record (KBUO)
Temperature  
Mean Temperature 38 °F -  
Max Temperature 55 °F 58 °F 64 °F (1998)
Min Temperature 21 °F 40 °F 35 °F (1998)
Degree Days  
Heating Degree Days 27    
Moisture  
Dew Point 7 °F    
Average Humidity 33    
Maximum Humidity 46    
Minimum Humidity 10    
Precipitation  
Precipitation 0.00 in - - ()
Sea Level Pressure  
Sea Level Pressure 30.34 in    
Wind  
Wind Speed 1 mph (ENE)    
Max Wind Speed 9 mph    
Max Gust Speed -    
Visibility 10 miles    
Events      
Averages and records for this station are not official NWS values.
T = Trace of Precipitation, MM = Missing Value Source: NWS Daily Summary

Daily Weather History Graph

Daily Weather History Graph

Search for Another Location

Airport or City:

Trip Planner

Search our weather history database for the weather conditions in past years. The results will help you decide how hot, cold, wet, or windy it might be!

Date:

Astronomy

Jan. 21, 2014 Rise Set
Actual Time 6:51 AM PST 5:06 PM PST
Civil Twilight 6:24 AM PST 5:33 PM PST
Nautical Twilight 5:53 AM PST 6:04 PM PST
Astronomical Twilight 5:23 AM PST 6:34 PM PST
Moon 10:27 PM PST (1/21) 9:38 AM PST (1/21)
Length of Visible Light 11h 09m
Length of Day
10h 15m
Waning Gibbous, 73% of the Moon is Illuminated
Jan 21
Waning Gibbous
Jan 23
Last Quarter
Jan 30
New
Feb 6
First Quarter
Feb 14
Full

Hourly Weather History & Observations

Time (PST) Temp. Dew Point Humidity Pressure Visibility Wind Dir Wind Speed Gust Speed Precip Events Conditions
12:15 AM 23.0 °F 3.2 °F 43% 30.41 in 10.0 mi Calm Calm - N/A   Clear
12:35 AM 23.0 °F 3.2 °F 43% 30.40 in 10.0 mi Calm Calm - N/A   Clear
12:55 AM 23.0 °F 3.2 °F 43% 30.40 in 10.0 mi Calm Calm - N/A   Clear
1:15 AM 23.0 °F 3.2 °F 43% 30.40 in 10.0 mi Calm Calm - N/A   Clear
1:35 AM 23.0 °F 3.2 °F 43% 30.39 in 10.0 mi Calm Calm - N/A   Clear
1:55 AM 23.0 °F 3.2 °F 43% 30.39 in 10.0 mi Calm Calm - N/A   Clear
2:15 AM 23.0 °F 3.2 °F 43% 30.39 in 10.0 mi Calm Calm - N/A   Clear
2:35 AM 23.0 °F 3.2 °F 43% 30.39 in 10.0 mi Calm Calm - N/A   Clear
2:55 AM 23.0 °F 3.2 °F 43% 30.39 in 10.0 mi Calm Calm - N/A   Clear
3:15 AM 23.0 °F 5.0 °F 46% 30.39 in 10.0 mi Calm Calm - N/A   Clear
3:35 AM 23.0 °F 3.2 °F 43% 30.38 in 10.0 mi Calm Calm - N/A   Clear
3:55 AM 23.0 °F 3.2 °F 43% 30.38 in 10.0 mi Calm Calm - N/A   Clear
4:15 AM 23.0 °F 3.2 °F 43% 30.38 in 10.0 mi Calm Calm - N/A   Clear
4:35 AM 23.0 °F 3.2 °F 43% 30.38 in 10.0 mi Calm Calm - N/A   Clear
4:55 AM 23.0 °F 3.2 °F 43% 30.38 in 10.0 mi Calm Calm - N/A   Clear
5:15 AM 23.0 °F 5.0 °F 46% 30.38 in 10.0 mi Calm Calm - N/A   Clear
5:35 AM 21.2 °F 3.2 °F 46% 30.39 in 10.0 mi Calm Calm - N/A   Clear
5:55 AM 21.2 °F 3.2 °F 46% 30.39 in 10.0 mi Calm Calm - N/A   Clear
6:15 AM 21.2 °F 3.2 °F 46% 30.39 in 10.0 mi Calm Calm - N/A   Clear
6:35 AM 21.2 °F 3.2 °F 46% 30.39 in 10.0 mi Calm Calm - N/A   Clear
6:55 AM 21.2 °F 3.2 °F 46% 30.39 in 10.0 mi Calm Calm - N/A   Clear
7:15 AM 23.0 °F 3.2 °F 43% 30.39 in 10.0 mi Calm Calm - N/A   Clear
7:35 AM 23.0 °F 5.0 °F 46% 30.39 in 10.0 mi Calm Calm - N/A   Clear
7:55 AM 24.8 °F 3.2 °F 40% 30.40 in 10.0 mi Calm Calm - N/A   Clear
8:15 AM 26.6 °F 3.2 °F 37% 30.40 in 10.0 mi Calm Calm - N/A   Clear
8:35 AM 28.4 °F 5.0 °F 37% 30.40 in 10.0 mi Calm Calm - N/A   Clear
8:55 AM 30.2 °F 6.8 °F 37% 30.40 in 10.0 mi Calm Calm - N/A   Clear
9:15 AM 32.0 °F 10.4 °F 41% 30.41 in 10.0 mi Calm Calm - N/A   Clear
9:35 AM 35.6 °F 8.6 °F 33% 30.41 in 10.0 mi Calm Calm - N/A   Clear
9:55 AM 41.0 °F 3.2 °F 21% 30.40 in 10.0 mi Calm Calm - N/A   Clear
10:15 AM 46.4 °F -4.0 °F 12% 30.39 in 10.0 mi Calm Calm - N/A   Clear
10:35 AM 50.0 °F -2.2 °F 12% 30.39 in 10.0 mi Calm Calm - N/A   Clear
10:55 AM 53.6 °F -2.2 °F 10% 30.38 in 10.0 mi Calm Calm - N/A   Clear
11:15 AM 55.4 °F 1.4 °F 11% 30.36 in 10.0 mi East 6.9 mph - N/A   Clear
11:35 AM 55.4 °F 3.2 °F 12% 30.35 in 10.0 mi NE 9.2 mph - N/A   Clear
11:55 AM 55.4 °F 5.0 °F 13% 30.33 in 10.0 mi ENE 8.1 mph - N/A   Clear
12:15 PM 55.4 °F 6.8 °F 14% 30.31 in 10.0 mi East 9.2 mph - N/A   Clear
12:35 PM 53.6 °F 6.8 °F 15% 30.31 in 10.0 mi East 8.1 mph - N/A   Clear
12:55 PM 53.6 °F 6.8 °F 15% 30.30 in 10.0 mi East 6.9 mph - N/A   Clear
1:15 PM 51.8 °F 6.8 °F 16% 30.30 in 10.0 mi East 5.8 mph - N/A   Clear
1:35 PM 51.8 °F 6.8 °F 16% 30.29 in 10.0 mi East 4.6 mph - N/A   Clear
1:55 PM 51.8 °F 6.8 °F 16% 30.29 in 10.0 mi ENE 4.6 mph - N/A   Clear
2:15 PM 53.6 °F 8.6 °F 16% 30.29 in 10.0 mi East 4.6 mph - N/A   Clear
2:35 PM 53.6 °F 6.8 °F 15% 30.29 in 10.0 mi ENE 4.6 mph - N/A   Clear
2:55 PM 51.8 °F 8.6 °F 18% 30.29 in 10.0 mi ENE 4.6 mph - N/A   Clear
3:15 PM 51.8 °F 8.6 °F 18% 30.30 in 10.0 mi East 3.5 mph - N/A   Clear
3:35 PM 51.8 °F 8.6 °F 18% 30.30 in 10.0 mi ENE 5.8 mph - N/A   Clear
3:55 PM 50.0 °F 8.6 °F 19% 30.30 in 10.0 mi ENE 4.6 mph - N/A   Scattered Clouds
4:15 PM 50.0 °F 8.6 °F 19% 30.30 in 10.0 mi Calm Calm - N/A   Scattered Clouds
4:35 PM 50.0 °F 8.6 °F 19% 30.30 in 10.0 mi Calm Calm - N/A   Clear
4:55 PM 46.4 °F 10.4 °F 23% 30.30 in 10.0 mi Calm Calm - N/A   Clear
5:15 PM 44.6 °F 10.4 °F 25% 30.30 in 10.0 mi Calm Calm - N/A   Clear
5:35 PM 42.8 °F 12.2 °F 29% 30.30 in 10.0 mi Calm Calm - N/A   Scattered Clouds
5:55 PM 41.0 °F 10.4 °F 29% 30.31 in 10.0 mi Calm Calm - N/A   Clear
6:15 PM 39.2 °F 10.4 °F 31% 30.30 in 10.0 mi Calm Calm - N/A   Clear
6:35 PM 37.4 °F 10.4 °F 33% 30.30 in 10.0 mi Calm Calm - N/A   Clear
6:55 PM 35.6 °F 12.2 °F 38% 30.30 in 10.0 mi Calm Calm - N/A   Clear
7:15 PM 35.6 °F 12.2 °F 38% 30.30 in 10.0 mi Calm Calm - N/A   Clear
7:35 PM 35.6 °F 10.4 °F 35% 30.30 in 10.0 mi Calm Calm - N/A   Clear
7:55 PM 33.8 °F 10.4 °F 38% 30.30 in 10.0 mi Calm Calm - N/A   Clear
8:15 PM 33.8 °F 10.4 °F 38% 30.30 in 10.0 mi Calm Calm - N/A   Clear
8:35 PM 33.8 °F 10.4 °F 38% 30.30 in 10.0 mi Calm Calm - N/A   Clear
8:55 PM 33.8 °F 10.4 °F 38% 30.30 in 7.0 mi Calm Calm - N/A   Clear
9:15 PM 32.0 °F 10.4 °F 41% 30.30 in 10.0 mi Calm Calm - N/A   Clear
9:35 PM 32.0 °F 8.6 °F 38% 30.31 in 10.0 mi Calm Calm - N/A   Clear
9:55 PM 32.0 °F 10.4 °F 41% 30.30 in 10.0 mi Calm Calm - N/A   Clear
10:15 PM 32.0 °F 12.2 °F 44% 30.30 in 10.0 mi Calm Calm - N/A   Clear
10:35 PM 32.0 °F 12.2 °F 44% 30.30 in 10.0 mi Calm Calm - N/A   Clear
10:55 PM 33.8 °F 14.0 °F 44% 30.30 in 10.0 mi Calm Calm - N/A   Clear
11:15 PM 32.0 °F 10.4 °F 41% 30.29 in 10.0 mi Calm Calm - N/A   Clear
11:35 PM 32.0 °F 12.2 °F 44% 30.28 in 10.0 mi Calm Calm - N/A   Clear
11:55 PM 32.0 °F 12.2 °F 44% 30.28 in 10.0 mi Calm Calm - N/A   Scattered Clouds